ATLAS 5 CENTAUR DEB, 44659

Orbit data source: Space-Track

ATLAS 5 CENTAUR DEB, 44659 is space debris in HEO originally from a launch on Wed, 17 Oct 2018 UTC launched from the Air Force Eastern Test Range (AFETR). Debris objects in space refer to the collection of defunct objects orbiting the Earth. Examples of debris include non-operational satellites, rocket bodies, and fragments generated from explosions, collisions, or faulty payload assembly.

Loading next visibility...
Identifier
44659, 2018-079V
Orbit
HEO
Country
Flag of USUS
Related business
Flag of USUnited Launch Alliance/Lockheed Martin (US)
Manufacturer
ULA Decatur
Mission
Spacecraft
Bus & Motor
Unknown
Mass
Unknown
Launch date (UTC)
2018-10-17 (8 years ago)
Launch vehicle
Unknown
Launch site
Air Force Eastern Test Range (AFETR)
Object type
Payload
Rocket body
Debris
Shape & HBR
Unknown shape, 1.1 m
Radar Cross Section
RCS unknown

Expand to show TLE details & history
Last TLE update: 23 hours ago

TLE from 23 hours ago
0 ATLAS 5 CENTAUR DEB
1 44659U 18079V   26127.34436367 -.00000138  00000-0  00000-0 0  9990
2 44659  13.4336  21.9756 4540597 342.7203   5.9475  1.90601909 48585
Epoch: 2026-05-07T08:15Z
TLE epoch observation values (Epoch: 2026-05-07T08:15:53.021Z)
Latitude
-0.00003°
Longitude
32.78745°
Altitude
8,833.761 km
Speed
6.156 km/s
True Right ascension
01h 27m 48s
True Declination
0° 00' 00"
Sunlit
Object was in daylight at epoch
Visualization orbit readout
Latitude
Unknown
Longitude
Unknown
Altitude
Unknown
Speed
Unknown
Apparent Right ascension
Unknown
Apparent Declination
Unknown
Sunlit
N/A
Visualization observer readout
Local Sidereal Time
15:01:22
Azimuth
Unknown
Elevation
Unknown
Doppler factor
Unknown
Orbital elements
Apogee altitude
33,579.436 km
Perigee altitude
8,624.307 km
Semi-major axis
27,480.008 km
Eccentricity
0.45406
Inclination
13.4336°
RAAN
21.9756°
Arg. of periapsis
342.7203°
True anomaly
17.60454°
Mean anomaly
5.9475°
Eccentric anomaly
10.84035°
Mean motion
0.47645 °/min
Orbital period
755.59 mins
BSTAR
0
Loading maneuver chart data...
Computing Atmospheric mass density...

Documentation

Showing up to 5 results
|